UAL4MJ KDCA-KLGA

Flight info

Callsign UAL4MJ
Flight time 0h 37m
Altitude 25000
Route DOCTR5 AGARD SPEAK PROUD2
Aircraft A320/M-SDE3FGHIRWY/LB1

Departure

Time 2026-04-22 18:52
Airport Ronald Reagan Washington National Airport (KDCA)

Arrival

Time 2026-04-22 19:30
Airport LaGuardia Airport (KLGA)
Time Latitude Longitude Altitude Speed Heading
2026-04-22 18:37 38.85263 -77.04117 25 ft 0 kts 176°
2026-04-22 18:44 38.85267 -77.04118 24 ft 2 kts 173°
2026-04-22 18:44 38.85282 -77.04123 27 ft 2 kts 149°
2026-04-22 18:45 38.85295 -77.04136 29 ft 2 kts 116°
2026-04-22 18:45 38.85299 -77.04156 27 ft 2 kts 89°
2026-04-22 18:45 38.85298 -77.04175 27 ft 1 kts 75°
2026-04-22 18:45 38.85297 -77.04181 28 ft 0 kts 71°
2026-04-22 18:48 38.85308 -77.04139 27 ft 10 kts 71°
2026-04-22 18:48 38.85332 -77.04041 24 ft 13 kts 76°
2026-04-22 18:49 38.85409 -77.04002 24 ft 14 kts 355°
2026-04-22 18:49 38.85508 -77.04017 28 ft 17 kts 346°
2026-04-22 18:49 38.85661 -77.04045 29 ft 23 kts 354°
2026-04-22 18:49 38.85828 -77.04061 27 ft 26 kts 356°
2026-04-22 18:50 38.85944 -77.04039 26 ft 5 kts 73°
2026-04-22 18:50 38.85936 -77.03988 27 ft 8 kts 99°
2026-04-22 18:50 38.85914 -77.03922 28 ft 9 kts 115°
2026-04-22 18:50 38.85871 -77.03863 28 ft 10 kts 147°
2026-04-22 18:51 38.85802 -77.03843 27 ft 9 kts 176°
2026-04-22 18:51 38.85731 -77.03836 25 ft 13 kts 174°
2026-04-22 18:51 38.85670 -77.03829 24 ft 15 kts 174°
2026-04-22 18:51 38.85460 -77.03808 29 ft 62 kts 175°
2026-04-22 18:52 38.84801 -77.03739 24 ft 122 kts 175°
2026-04-22 18:52 38.83817 -77.03642 166 ft 151 kts 175°
2026-04-22 18:52 38.82798 -77.03527 817 ft 149 kts 175°
2026-04-22 18:52 38.81775 -77.03315 1440 ft 150 kts 175°
2026-04-22 18:53 38.80727 -77.03069 1908 ft 159 kts 175°
2026-04-22 18:53 38.79560 -77.02812 2133 ft 182 kts 175°
2026-04-22 18:53 38.78246 -77.02523 2354 ft 206 kts 175°
2026-04-22 18:53 38.76728 -77.02154 2666 ft 232 kts 166°
2026-04-22 18:54 38.75762 -77.01500 3001 ft 248 kts 138°
2026-04-22 18:54 38.74820 -76.99578 3434 ft 271 kts 105°
2026-04-22 18:54 38.74600 -76.96290 4325 ft 285 kts 83°
2026-04-22 18:54 38.75158 -76.93880 5155 ft 284 kts 58°
2026-04-22 18:55 38.76246 -76.91785 6035 ft 283 kts 45°
2026-04-22 18:55 38.77624 -76.90009 6892 ft 280 kts 33°
2026-04-22 18:55 38.79247 -76.88627 7729 ft 281 kts 26°
2026-04-22 18:55 38.80920 -76.87305 8551 ft 284 kts 26°
2026-04-22 18:56 38.82610 -76.85975 9384 ft 287 kts 26°
2026-04-22 18:56 38.84327 -76.84624 10146 ft 292 kts 28°
2026-04-22 18:56 38.85903 -76.82979 10839 ft 302 kts 42°
2026-04-22 18:56 38.87241 -76.80757 11074 ft 330 kts 57°
2026-04-22 18:57 38.88301 -76.78017 11224 ft 355 kts 61°
2026-04-22 18:57 38.89032 -76.76053 11397 ft 366 kts 61°
2026-04-22 18:57 38.90125 -76.73112 11934 ft 373 kts 61°
2026-04-22 18:57 38.91250 -76.70089 12570 ft 377 kts 61°
2026-04-22 18:58 38.92774 -76.65995 13450 ft 382 kts 60°
2026-04-22 18:58 38.93537 -76.63944 13879 ft 385 kts 60°
2026-04-22 18:58 38.94691 -76.60823 14459 ft 389 kts 61°
2026-04-22 18:58 38.95798 -76.57635 15029 ft 393 kts 63°
2026-04-22 18:59 38.96866 -76.54383 15570 ft 397 kts 63°
2026-04-22 18:59 38.97914 -76.51091 16137 ft 400 kts 64°
2026-04-22 18:59 38.98963 -76.47759 16691 ft 404 kts 64°
2026-04-22 18:59 39.00030 -76.44395 17260 ft 408 kts 64°
2026-04-22 19:00 39.00925 -76.40956 17840 ft 416 kts 72°
2026-04-22 19:00 39.01406 -76.37269 18406 ft 422 kts 79°
2026-04-22 19:00 39.01775 -76.33504 18934 ft 426 kts 79°
2026-04-22 19:00 39.02148 -76.29710 19473 ft 429 kts 79°
2026-04-22 19:01 39.02525 -76.25884 20019 ft 433 kts 79°
2026-04-22 19:01 39.02904 -76.22030 20553 ft 436 kts 79°
2026-04-22 19:01 39.03284 -76.18146 21057 ft 439 kts 79°
2026-04-22 19:01 39.03665 -76.14237 21547 ft 442 kts 79°
2026-04-22 19:02 39.04047 -76.10300 22012 ft 445 kts 79°
2026-04-22 19:02 39.04422 -76.06331 22471 ft 449 kts 81°
2026-04-22 19:02 39.04710 -76.02320 22923 ft 452 kts 83°
2026-04-22 19:02 39.04908 -75.98345 23363 ft 456 kts 84°
2026-04-22 19:03 39.05056 -75.94248 23764 ft 459 kts 85°
2026-04-22 19:03 39.05184 -75.90130 24120 ft 461 kts 85°
2026-04-22 19:03 39.05319 -75.85986 24476 ft 464 kts 84°
2026-04-22 19:03 39.05526 -75.81848 24822 ft 464 kts 79°
2026-04-22 19:04 39.06202 -75.77806 25035 ft 460 kts 68°
2026-04-22 19:04 39.07451 -75.74024 25065 ft 462 kts 57°
2026-04-22 19:04 39.09171 -75.70598 25067 ft 459 kts 47°
2026-04-22 19:04 39.11241 -75.67511 25064 ft 455 kts 40°
2026-04-22 19:05 39.13457 -75.64593 25064 ft 456 kts 41°
2026-04-22 19:05 39.15666 -75.61646 25064 ft 456 kts 41°
2026-04-22 19:05 39.17856 -75.58708 25063 ft 456 kts 41°
2026-04-22 19:05 39.20061 -75.55748 25064 ft 456 kts 41°
2026-04-22 19:06 39.22274 -75.52805 25063 ft 455 kts 39°
2026-04-22 19:06 39.24687 -75.50232 25061 ft 448 kts 30°
2026-04-22 19:06 39.27256 -75.47967 25061 ft 447 kts 29°
2026-04-22 19:07 39.32345 -75.43474 24693 ft 443 kts 29°
2026-04-22 19:07 39.34883 -75.41222 24472 ft 442 kts 29°
2026-04-22 19:07 39.37412 -75.38970 24259 ft 441 kts 29°
2026-04-22 19:07 39.39933 -75.36722 24029 ft 439 kts 29°
2026-04-22 19:08 39.42440 -75.34484 23791 ft 438 kts 29°
2026-04-22 19:08 39.44945 -75.32248 23537 ft 436 kts 29°
2026-04-22 19:08 39.47425 -75.30033 22896 ft 430 kts 29°
2026-04-22 19:08 39.49873 -75.27849 22240 ft 425 kts 29°
2026-04-22 19:09 39.52257 -75.25705 21708 ft 421 kts 30°
2026-04-22 19:09 39.54643 -75.23503 21274 ft 421 kts 31°
2026-04-22 19:09 39.57008 -75.21282 20827 ft 419 kts 31°
2026-04-22 19:09 39.59356 -75.19057 20376 ft 416 kts 31°
2026-04-22 19:10 39.61687 -75.16845 19924 ft 413 kts 31°
2026-04-22 19:10 39.63997 -75.14652 19477 ft 410 kts 31°
2026-04-22 19:10 39.66296 -75.12480 19033 ft 407 kts 31°
2026-04-22 19:10 39.68583 -75.10338 18593 ft 404 kts 30°
2026-04-22 19:11 39.70887 -75.08282 18046 ft 401 kts 29°
2026-04-22 19:11 39.73174 -75.06321 17586 ft 397 kts 28°
2026-04-22 19:11 39.75488 -75.04376 17141 ft 396 kts 28°
2026-04-22 19:11 39.77797 -75.02440 16707 ft 394 kts 28°
2026-04-22 19:12 39.80087 -75.00505 16281 ft 392 kts 28°
2026-04-22 19:12 39.82348 -74.98577 15969 ft 383 kts 28°
2026-04-22 19:12 39.84526 -74.96698 15840 ft 368 kts 29°
2026-04-22 19:12 39.86608 -74.94865 15716 ft 355 kts 29°
2026-04-22 19:13 39.88595 -74.93065 15587 ft 342 kts 30°
2026-04-22 19:13 39.90507 -74.91309 15461 ft 330 kts 30°
2026-04-22 19:13 39.92288 -74.89536 15247 ft 327 kts 37°
2026-04-22 19:13 39.93861 -74.87407 15015 ft 326 kts 43°
2026-04-22 19:14 39.95380 -74.85228 14724 ft 324 kts 43°
2026-04-22 19:14 39.96896 -74.83063 14420 ft 322 kts 43°
2026-04-22 19:14 39.98405 -74.80904 14077 ft 321 kts 43°
2026-04-22 19:14 39.99903 -74.78755 13738 ft 320 kts 43°
2026-04-22 19:15 40.01393 -74.76617 13392 ft 318 kts 43°
2026-04-22 19:15 40.02880 -74.74486 13008 ft 317 kts 43°
2026-04-22 19:15 40.04340 -74.72400 12690 ft 315 kts 43°
2026-04-22 19:15 40.05813 -74.70287 12330 ft 314 kts 43°
2026-04-22 19:16 40.07280 -74.68181 11985 ft 313 kts 43°
2026-04-22 19:16 40.08738 -74.66088 11614 ft 311 kts 43°
2026-04-22 19:16 40.10187 -74.64003 11253 ft 310 kts 43°
2026-04-22 19:16 40.11632 -74.61925 10918 ft 308 kts 43°
2026-04-22 19:17 40.13073 -74.59851 10622 ft 307 kts 43°
2026-04-22 19:17 40.14502 -74.57791 10328 ft 306 kts 43°
2026-04-22 19:17 40.15909 -74.55761 10028 ft 305 kts 43°
2026-04-22 19:17 40.17330 -74.53710 9712 ft 304 kts 44°
2026-04-22 19:18 40.18746 -74.51662 9384 ft 303 kts 44°
2026-04-22 19:18 40.20156 -74.49624 9102 ft 301 kts 43°
2026-04-22 19:18 40.21605 -74.47656 8783 ft 299 kts 40°
2026-04-22 19:18 40.23091 -74.45770 8461 ft 297 kts 39°
2026-04-22 19:19 40.24589 -74.43914 8131 ft 295 kts 39°
2026-04-22 19:19 40.26081 -74.42072 7811 ft 294 kts 39°
2026-04-22 19:19 40.27534 -74.40269 7571 ft 290 kts 39°
2026-04-22 19:19 40.28986 -74.38454 7402 ft 287 kts 40°
2026-04-22 19:20 40.30421 -74.36653 7215 ft 286 kts 40°
2026-04-22 19:20 40.31849 -74.34853 7050 ft 285 kts 40°
2026-04-22 19:20 40.33273 -74.33051 6860 ft 284 kts 40°
2026-04-22 19:20 40.34693 -74.31250 6682 ft 284 kts 40°
2026-04-22 19:21 40.36110 -74.29452 6507 ft 283 kts 40°
2026-04-22 19:21 40.37522 -74.27661 6328 ft 282 kts 40°
2026-04-22 19:21 40.38931 -74.25874 6144 ft 281 kts 40°
2026-04-22 19:21 40.40313 -74.24116 5971 ft 280 kts 40°
2026-04-22 19:22 40.41708 -74.22339 5795 ft 279 kts 40°
2026-04-22 19:22 40.43103 -74.20563 5624 ft 278 kts 41°
2026-04-22 19:22 40.44490 -74.18799 5444 ft 278 kts 41°
2026-04-22 19:22 40.45872 -74.17036 5275 ft 277 kts 41°
2026-04-22 19:23 40.47254 -74.15273 5104 ft 276 kts 41°
2026-04-22 19:23 40.48629 -74.13521 4930 ft 275 kts 41°
2026-04-22 19:23 40.49991 -74.11785 4747 ft 273 kts 41°
2026-04-22 19:23 40.51358 -74.10043 4577 ft 273 kts 40°
2026-04-22 19:24 40.52859 -74.08550 4402 ft 270 kts 30°
2026-04-22 19:24 40.54417 -74.07239 4237 ft 269 kts 30°
2026-04-22 19:24 40.55988 -74.05911 4083 ft 268 kts 31°
2026-04-22 19:24 40.57555 -74.04582 3916 ft 268 kts 31°
2026-04-22 19:25 40.59123 -74.03251 3749 ft 268 kts 31°
2026-04-22 19:25 40.60678 -74.01930 3584 ft 264 kts 31°
2026-04-22 19:25 40.62200 -74.00636 3413 ft 258 kts 31°
2026-04-22 19:25 40.63688 -73.99370 3256 ft 251 kts 31°
2026-04-22 19:26 40.65136 -73.98142 3093 ft 245 kts 31°
2026-04-22 19:26 40.66558 -73.96935 2940 ft 240 kts 33°
2026-04-22 19:26 40.67943 -73.95746 2759 ft 235 kts 33°
2026-04-22 19:26 40.69271 -73.94595 2594 ft 230 kts 36°
2026-04-22 19:27 40.70409 -73.93176 2429 ft 223 kts 49°
2026-04-22 19:27 40.71451 -73.91669 2254 ft 221 kts 53°
2026-04-22 19:27 40.72093 -73.89911 2037 ft 210 kts 80°
2026-04-22 19:27 40.72413 -73.88035 1715 ft 207 kts 80°
2026-04-22 19:28 40.72719 -73.86265 1431 ft 189 kts 81°
2026-04-22 19:28 40.73171 -73.84710 1133 ft 180 kts 58°
2026-04-22 19:28 40.74109 -73.83753 866 ft 165 kts 27°
2026-04-22 19:28 40.75180 -73.83461 613 ft 157 kts 360°
2026-04-22 19:29 40.76187 -73.83883 381 ft 153 kts 319°
2026-04-22 19:29 40.76854 -73.84918 211 ft 150 kts 297°
2026-04-22 19:29 40.77384 -73.86095 19 ft 148 kts 298°
2026-04-22 19:29 40.77863 -73.87084 14 ft 105 kts 302°
2026-04-22 19:30 40.78072 -73.87521 15 ft 52 kts 302°
2026-04-22 19:30 40.78205 -73.87852 18 ft 10 kts 254°
2026-04-22 19:30 40.78143 -73.87860 17 ft 20 kts 169°
2026-04-22 19:30 40.78054 -73.87719 18 ft 22 kts 122°
2026-04-22 19:31 40.77971 -73.87547 16 ft 22 kts 122°
2026-04-22 19:31 40.77889 -73.87372 14 ft 23 kts 122°
2026-04-22 19:31 40.77818 -73.87224 15 ft 10 kts 121°
2026-04-22 19:31 40.77778 -73.87138 13 ft 12 kts 122°
2026-04-22 19:32 40.77729 -73.87035 13 ft 14 kts 122°
2026-04-22 19:32 40.77672 -73.86915 12 ft 16 kts 123°
2026-04-22 19:32 40.77602 -73.86815 12 ft 11 kts 181°
2026-04-22 19:32 40.77535 -73.86814 15 ft 10 kts 128°
2026-04-22 19:33 40.77486 -73.86725 13 ft 14 kts 134°
2026-04-22 19:33 40.77431 -73.86727 19 ft 7 kts 242°
2026-04-22 19:33 40.77405 -73.86787 19 ft 9 kts 241°
2026-04-22 19:33 40.77389 -73.86828 19 ft 1 kts 245°
2026-04-22 19:34 40.77387 -73.86832 21 ft 0 kts 238°